Location: ????
(48.3371°N, 34.0628°E)
Time: 14:38:45
(UTC+00:00)

Daily predictions for brighter satellites

Satellite Brightness Start Highest point End
(mag) Time Altitude Azimuth Time Altitude Azimuth Time Altitude Azimuth
Cosmos 2237 4.3 18:16:58 10° S 18:22:33 57° ESE 18:28:12 10° NE
SPOT 3 Rocket 4.3 18:17:37 10° S 18:22:43 55° W 18:27:51 10° NNW
NOSS 7 (D) 3.9 18:26:55 10° SSW 18:29:42 53° SE 18:32:20 10° NE
Cosmos 1328 4.4 18:27:50 10° SSE 18:31:33 40° E 18:35:17 10° NNE
Cosmos 1455 2.2 18:33:06 10° N 18:36:58 86° W 18:40:49 10° S
Cosmos 1825 Rocket 3.8 18:34:59 10° S 18:39:17 52° E 18:43:38 10° NNE
COSMOS 2428 3.8 18:35:23 10° SSE 18:39:56 26° ESE 18:44:31 10° NE
BREEZE-M DEB (TANK) 3.5 18:28:56 10° W 18:41:48 88° NNE 18:45:20 10° E
Cosmos 1844 3.8 18:36:03 10° NNW 18:41:53 76° ENE 18:47:36 10° SSE
ATLAS CENTAUR R/B 2.3 18:38:59 10° NNW 18:42:23 32° NE 18:45:42 10° ESE
BREEZE-M DEB (TANK) 2.9 18:33:39 10° W 18:42:41 81° NNW 18:45:53 10° ENE
Cosmos 2322 4.1 18:38:21 10° S 18:43:44 44° ESE 18:49:08 10° NE
Cosmos 1812 Rocket 4.2 18:40:40 10° NNW 18:44:55 54° W 18:49:07 10° S
Cosmos 1703 3.2 18:41:48 10° S 18:45:37 65° E 18:49:29 10° NNE
Cosmos 1709 Rocket 4.2 18:41:44 10° S 18:47:52 59° E 18:54:07 10° NNE
Nadezhda 1 Rocket 4.3 18:41:36 10° NNW 18:48:00 73° W 18:54:21 10° S
Cosmos 2263 Rocket 4.4 18:46:05 10° WNW 18:49:54 19° W 18:53:42 10° SW
Cosmos 783 Rocket 4.5 18:46:21 10° S 18:51:33 69° ESE 18:56:46 10° NNE
Atlas Centaur 2 4.0 18:49:17 10° SSW 18:52:48 16° S 18:56:13 11° SE
Cosmos 2237 Rocket 4.0 18:51:33 10° ESE 18:54:09 13° E 18:56:45 10° ENE
Cosmos 2333 4.4 18:50:03 10° S 18:55:29 52° ESE 19:01:01 10° NE
Cosmos 2219 Rocket 2.7 18:51:06 10° S 18:56:10 37° ESE 19:01:17 10° NE
Terra 2.6 18:52:47 11° SE 18:56:59 40° ENE 19:01:27 10° N
CZ-4B DEB 4.4 18:54:48 12° SSE 18:57:51 66° ENE 19:01:12 10° N
Cosmos 2360 Rocket 2.3 18:52:16 10° SSW 18:57:55 85° WNW 19:03:39 10° NNE
CARTOSAT-1 3.7 18:55:50 12° SSE 18:59:49 62° ENE 19:04:06 10° N
ATLAS 2AS CENTAUR R/B 3.9 18:56:04 10° NW 19:03:19 40° NNE 19:10:01 10° E
IGS 5A 3.8 18:59:33 10° S 19:03:40 64° WSW 19:07:50 10° NNW
Cosmos 2333 Rocket 2.5 19:00:12 10° S 19:05:36 47° ESE 19:11:05 10° NE
Cosmos 1818 3.8 19:09:00 10° SW 19:14:25 75° NW 19:19:54 10° NE
Resurs 01 Rocket 3.7 19:11:06 10° SSW 19:14:38 23° W 19:18:11 10° NW
Cosmos 1315 Rocket 3.1 19:11:26 10° N 19:15:28 56° ENE 19:18:31 17° SSE
SL-16 R/B 4.1 19:11:58 10° WSW 19:17:04 33° NW 19:22:13 10° NNE
Cosmos 773 Rocket 4.0 19:12:17 10° SSW 19:17:34 76° ESE 19:22:52 10° NNE
Cosmos-2242 3.7 19:13:31 10° NNW 19:17:46 54° W 19:22:01 10° S
USA 215 3.3 19:13:04 10° ENE 19:19:31 56° SE 19:25:55 10° SW
ERS-1 Rocket 3.0 19:16:51 13° SSE 19:21:25 82° WSW 19:26:31 10° NNW
GEOS 3 Rocket 3.7 19:16:44 10° NE 19:22:10 88° NW 19:27:34 10° SW
Cosmos 2221 3.3 19:18:36 10° N 19:22:46 40° ENE 19:25:39 18° SE
Cosmos 2278 Rocket 2.8 19:21:19 10° NNW 19:26:51 50° NE 19:31:19 15° SE
Gblst 52 Del rocket 4.3 19:21:51 10° WNW 19:27:32 88° SSW 19:33:39 11° ESE
Meteor 1-11 4.2 19:24:19 10° S 19:29:56 89° W 19:35:41 10° NNE
ATLAS 5 CENTAUR R/B 2.1 19:26:03 10° SW 19:30:12 62° NW 19:34:57 10° NE
Cosmos 1844 Rocket 3.7 19:26:33 10° NW 19:31:42 39° WSW 19:36:36 11° S
Cosmos 1892 4.0 19:32:04 19° SE 19:33:38 25° E 19:36:47 10° NNE
Cosmos 1400 Rocket 4.4 19:34:47 10° NNW 19:38:17 30° W 19:41:43 10° SSW
SL-16 R/B 4.2 19:37:15 10° ESE 19:38:31 11° E 19:39:48 10° E
SPOT 5 3.2 19:34:42 15° S 19:38:56 66° WSW 19:43:44 10° NNW
Cosmos 2181 Rocket 4.2 19:37:37 10° NNW 19:43:58 70° W 19:49:25 14° S
USA 81 4.2 19:39:13 10° S 19:44:28 75° W 19:49:47 10° N
Lacrosse 5 rocket 3.7 19:41:45 10° WNW 19:45:11 24° N 19:48:29 10° NE
BREEZE-M DEB (TANK) 2.8 19:41:59 10° SW 19:45:23 30° SSE 19:45:23 30° SSE
Cosmos 2074 Rocket 4.0 19:44:35 16° S 19:49:36 68° E 19:55:47 10° NNE
Cosmos 2058 3.5 19:48:49 24° SSE 19:50:49 40° E 19:54:43 10° NNE
In-Cosmos 22 Rocket 4.4 19:48:10 20° SSE 19:51:34 50° E 19:56:43 10° NNE
USA 267 3.3 19:46:46 13° ESE 19:52:42 86° NE 19:59:18 10° NW
TSX-5 3.8 19:49:38 10° NNW 19:53:04 63° ENE 19:55:16 25° SE
Cosmos 1408 3.8 19:54:47 23° ESE 19:55:45 26° E 19:58:47 10° NNE
Cosmos 1680 Rocket 4.1 19:55:25 22° SSE 19:58:15 40° ESE 20:03:12 10° NE
Cosmos 1076 Rocket 3.9 19:59:22 26° SSE 20:01:25 47° E 20:05:32 10° NNE
BREEZE-M DEB (TANK) 3.7 20:08:08 24° SE 20:08:08 24° SE 20:13:04 10° ENE
Cosmos 1842 Rocket 3.9 20:04:58 10° NNW 20:09:16 58° W 20:11:52 22° SSW
Cosmos 2084 4.0 20:05:14 10° NW 20:09:31 47° SW 20:11:33 27° S
Cosmos 2344 4.0 20:06:07 19° S 20:11:03 41° ESE 20:18:17 10° NE
Cosmos 2327 Rocket 4.5 20:07:35 21° S 20:11:47 69° E 20:17:54 10° NNE
JB-3 4.2 20:08:00 10° NNE 20:11:53 84° W 20:14:05 24° SSW
Cosmos 2151 4.2 20:10:45 23° ESE 20:12:10 28° E 20:15:50 10° NNE
Cosmos 923 Rocket 4.0 20:12:02 20° S 20:15:40 71° ESE 20:20:57 10° NNE
Cosmos 967 Rocket 4.5 20:12:03 10° SSW 20:18:30 76° ESE 20:24:58 10° NE
Cosmos 2369 Rocket 4.4 20:14:54 10° N 20:18:46 19° NE 20:22:39 10° E
Cosmos 1980 3.7 20:15:07 20° S 20:18:58 63° ESE 20:24:34 10° NNE
MTI 4.2 20:16:02 10° N 20:19:04 54° WNW 20:20:34 26° SW
ATLAS CENTAUR R/B 2.3 20:17:59 10° WNW 20:21:12 29° WSW 20:22:16 24° SSW
ALOS 2 3.7 20:20:39 21° ESE 20:22:53 34° ENE 20:26:51 10° N
COSMOS 2428 3.3 20:18:14 10° SW 20:23:48 58° WNW 20:29:26 10° NNE
Cosmos 1825 2.9 20:23:21 32° SE 20:24:20 38° E 20:27:53 10° NNE
Cosmos 44 4.3 20:26:52 22° ESE 20:26:57 22° ESE 20:30:21 10° ENE
NOSS 3-4 (A) 3.8 20:20:01 10° NW 20:26:58 87° NE 20:32:23 21° SE
NOSS 3-4 (C) 3.8 20:20:07 10° NW 20:27:05 86° NE 20:32:31 21° SE
NOSS 0 Rocket 3.9 20:23:36 13° SSW 20:29:09 85° ESE 20:35:21 10° NNE
Cosmos 1869 4.4 20:28:06 10° NNW 20:31:48 38° W 20:33:50 22° SW
GP-B 4.2 20:28:21 10° NNE 20:32:20 31° E 20:33:57 25° ESE
Cosmos 1624 Rocket 4.1 20:28:40 10° NNW 20:33:55 69° ENE 20:36:39 28° SE
Terra 3.4 20:31:40 14° SW 20:34:51 27° W 20:38:56 10° NW
NOSS 3-3 (A) 4.5 20:31:08 10° WSW 20:37:01 62° NW 20:43:46 10° NE
NOSS 3-3 (C) 4.5 20:31:13 10° SW 20:37:08 62° NW 20:43:54 10° NE
Cosmos 2237 Rocket 2.1 20:33:12 20° SSW 20:37:15 80° ESE 20:42:59 10° NNE
Cosmos 2219 Rocket 3.4 20:34:48 10° WSW 20:40:04 41° NW 20:45:24 10° NNE
Atlas Centaur 2 4.4 20:37:36 10° SW 20:38:47 12° SSW 20:38:47 12° SSW
Genesis I 3.1 20:43:46 39° SSW 20:45:01 65° SE 20:48:54 10° NE
DELTA 2 R/B (1) 4.2 20:44:10 10° SW 20:49:03 31° S 20:49:12 31° SSE
Thor Agena Rocket 3.5 20:44:44 10° NNE 20:49:53 87° WNW 20:52:43 27° SSW
Cosmos 2333 Rocket 3.8 20:44:52 10° WSW 20:50:03 35° NW 20:55:18 10° NNE
SL-4 R/B 3.1 20:50:50 15° NE 20:50:50 15° NE 20:51:43 10° NNE
ATLAS 2AS CENTAUR R/B 2.8 20:47:21 10° NW 20:54:56 74° SW 20:59:01 27° SSE
MOS 1-B Rocket 4.4 20:47:08 10° NNE 20:55:01 86° ESE 20:59:26 24° SSW
Cosmos 2221 4.4 20:56:42 10° NW 21:00:04 22° W 21:02:29 14° SW
Cosmos 1371 Rocket 4.1 20:56:24 10° NNW 21:01:37 65° WSW 21:03:55 33° S
USA 215 3.8 20:56:09 10° NE 21:02:37 63° NNW 21:09:03 10° WSW
Gbstr 26 Del rocket 4.5 21:06:59 19° ESE 21:06:59 19° ESE 21:08:45 10° E
EO 1 Del DPAF 3.7 21:04:48 10° N 21:08:30 54° WNW 21:09:59 31° SW
Cosmos 1766 Rocket 3.5 21:07:16 41° SSE 21:08:41 70° E 21:13:05 10° NNE
Cosmos 1892 4.4 21:07:01 16° WSW 21:09:14 26° WNW 21:12:31 10° NNW
Cosmos 2218 Rocket 4.2 21:06:07 30° SSE 21:09:20 61° E 21:15:33 10° NNE
Cosmos 2278 Rocket 3.4 21:05:48 10° NW 21:10:41 31° WSW 21:13:09 22° SW
Okean 3 Rocket 3.5 21:09:40 40° S 21:11:17 85° E 21:15:44 10° N
Cosmos 2112 Rocket 4.4 21:08:06 20° SW 21:11:47 63° WNW 21:17:08 10° NNE
Cosmos 1328 Rocket 3.6 21:07:38 10° N 21:11:57 69° E 21:13:23 40° SSE
Cosmos 2297 3.7 21:06:37 10° NNW 21:12:25 88° ENE 21:15:17 31° SSE
Cosmos 2366 rocket 4.2 21:11:55 30° SSE 21:15:07 65° E 21:21:24 10° NNE
Cosmos 1606 2.6 21:12:27 10° N 21:16:22 82° W 21:17:19 50° S
Cosmos 158 Rocket 4.5 21:13:11 18° SW 21:16:33 52° WNW 21:21:22 10° NNE
Aureole 2 Rocket 2.1 21:14:22 10° NNW 21:17:00 62° W 21:17:00 62° W
Cosmos 1420 Rocket 4.0 21:12:38 10° NNW 21:17:57 85° ENE 21:20:22 34° SSE
Cosmos 1943 Rocket 2.8 21:13:52 10° NNW 21:19:27 53° ENE 21:23:11 21° SE
SL-16 R/B 2.2 21:18:56 33° S 21:21:31 68° ESE 21:27:12 10° NNE
Cosmos 1959 Rocket 4.4 21:21:45 32° S 21:24:48 77° E 21:31:01 10° NNE
Lacrosse 5 rocket 2.9 21:21:30 10° NW 21:25:14 34° NNE 21:28:46 10° E
Cosmos 2056 Rocket 4.1 21:20:19 10° NNW 21:25:31 48° WSW 21:27:39 32° SSW
Cosmos 1633 3.4 21:27:04 34° ESE 21:27:32 35° E 21:30:53 10° NNE
Cosmos 2341 Rocket 4.2 21:26:53 25° SSW 21:30:35 64° WNW 21:36:47 10° N
Cosmos 1408 4.5 21:29:06 17° WSW 21:30:45 23° WNW 21:33:39 10° NNW
YAOGAN 11 4.3 21:31:33 37° SE 21:33:11 66° ENE 21:37:34 10° N
USA 267 4.0 21:34:05 28° SSW 21:36:10 34° SW 21:42:02 10° WNW
Cosmos 1743 Rocket 4.2 21:35:28 34° SE 21:36:39 42° E 21:40:47 10° NNE
Cosmos 332 Rocket 3.7 21:36:05 10° NNW 21:40:55 87° ENE 21:42:48 38° SSE
Meteor 2-3 Rocket 3.7 21:38:45 34° S 21:41:18 81° E 21:47:02 10° NNE
CZ-4C R/B 3.4 21:41:50 10° NW 21:48:42 59° NE 21:56:42 10° ESE
Helios 1A 3.0 21:48:16 46° S 21:49:23 70° WSW 21:53:34 10° NNW
Cosmos 2151 4.4 21:47:18 20° WSW 21:49:23 30° WNW 21:53:12 10° N
SL-8 Rocket 4.3 21:46:21 26° SSW 21:49:49 61° WNW 21:55:56 10° N
Meteor 1-26 Rocket 4.4 21:44:11 10° NNW 21:50:12 76° W 21:52:58 33° S
COSMOS 2455 2.8 21:45:43 10° NW 21:51:48 89° WSW 21:55:19 27° SSE
Cosmos 1452 Rocket 3.5 21:47:24 10° NNW 21:52:41 75° WSW 21:54:48 36° S
SL-16 R/B 4.3 21:48:27 10° ESE 21:53:24 26° ENE 21:58:24 10° N
Cosmos 405 2.9 21:51:12 10° N 21:54:46 80° E 21:55:20 60° SSE
Cosmos 1603 4.5 21:54:33 29° SSE 21:56:36 38° ESE 22:01:50 10° NE
PSLV R/B 3.9 21:53:30 10° NNE 21:57:37 50° E 21:58:47 38° SSE
ALOS 2 3.9 21:58:03 25° WSW 21:59:15 28° W 22:03:04 10° NW
Cosmos 1825 4.4 21:58:09 13° WSW 22:00:01 18° WNW 22:02:42 10° NNW
Cosmos 1727 Rocket 4.0 21:54:01 10° NNW 22:00:15 75° W 22:03:21 32° S
Cosmos 1408 Rocket 3.9 21:58:51 36° SW 22:00:23 58° WNW 22:04:46 10° N
Cosmos 1340 3.2 21:59:38 38° WSW 22:00:37 49° WNW 22:04:18 10° N
Cosmos 1933 4.3 21:57:50 10° NNW 22:01:30 34° W 22:02:24 30° WSW
Cosmos 1151 Rocket 4.0 21:58:05 10° NNW 22:02:01 34° W 22:03:13 29° SW
Cosmos 2369 Rocket 2.2 21:58:07 10° NNW 22:03:46 78° ENE 22:07:04 26° SE
Resurs 1-4 Rocket 4.2 22:01:23 10° NE 22:04:34 16° E 22:07:40 10° SE
APEX 3.6 22:03:16 10° NW 22:05:07 32° WNW 22:05:07 32° WNW
Cosmos 44 3.6 22:05:15 22° WSW 22:07:48 53° NW 22:12:12 10° NNE
Cosmos 1500 Rocket 3.5 22:07:42 43° S 22:09:07 87° E 22:13:32 10° N
SeaSat 1 4.1 22:06:17 10° ENE 22:09:59 21° ESE 22:11:34 18° SE
Cosmos 371 Rocket 4.0 22:06:00 10° NW 22:10:29 38° WSW 22:11:47 32° SW
ISS -1.5 22:18:05 15° ESE 22:18:05 15° ESE 22:19:03 10° E
Helios 1B rocket 2.5 22:13:45 10° NNE 22:17:53 67° ESE 22:19:05 43° SSE
Cosmos 1656 Rocket 4.1 22:14:54 10° NNW 22:20:14 56° ENE 22:24:43 15° SE
Meteor 1-27 Rocket 4.4 22:15:18 10° N 22:20:43 48° ENE 22:24:39 18° SE
Cosmos 2237 Rocket 4.2 22:17:29 10° W 22:22:00 23° NW 22:26:32 10° N
Cosmos 1782 3.3 22:18:57 10° NNW 22:22:45 46° W 22:23:34 39° SW
CREW DRAGON DEMO-1 DEB 3.6 22:22:53 17° W 22:24:59 51° NNW 22:28:00 10° ENE
Cosmos 2344 4.3 22:17:54 10° WSW 22:25:12 54° NW 22:33:33 10° NE
Cosmos 1805 Rocket 3.7 22:24:41 39° SSE 22:26:09 64° E 22:30:28 10° NNE
Cosmos 1812 2.9 22:25:13 10° N 22:29:04 64° E 22:30:21 38° SE
Cosmos 1346 Rocket 3.6 22:28:04 31° WSW 22:29:18 40° WNW 22:33:03 10° N
Cosmos 2263 4.2 22:24:19 10° NNW 22:30:05 89° ENE 22:33:44 24° SSE
CZ-2D R/B 3.6 22:29:56 10° NE 22:34:23 27° E 22:37:33 16° SE
Meteor 2-20 4.5 22:31:52 10° N 22:38:03 79° E 22:41:52 25° SSE
RESURS DK-1 2.2 22:37:44 10° NNW 22:41:53 76° WSW 22:43:23 38° SSE
CZ-4 R/B 4.0 22:37:50 10° N 22:42:28 61° WNW 22:44:35 31° SW
ATLAS 2AS CENTAUR R/B 4.3 22:40:12 10° WNW 22:44:31 17° WSW 22:46:25 15° WSW
USA 32 4.0 22:43:50 32° S 22:46:23 87° E 22:51:42 10° N
Lacrosse 5 3.9 22:48:42 12° SE 22:50:03 14° ESE 22:52:30 10° E
Gbstr 26 Del rocket 2.8 22:49:28 23° WSW 22:51:50 83° NNW 22:56:20 10° ENE
Cosmos 1707 Rocket 3.5 22:48:12 10° N 22:52:42 89° ENE 22:54:45 32° S
Cosmos 44 Rocket 3.2 22:51:44 35° SSW 22:53:37 67° ESE 22:58:21 10° NE
Cosmos 1441 Rocket 3.8 22:52:40 32° SSE 22:54:10 51° E 22:58:03 10° NNE
Cosmos 2228 Rocket 4.2 22:53:48 10° NNW 22:57:51 31° W 22:59:19 25° WSW
Cosmos 1943 3.2 22:56:06 29° SSW 22:59:10 90° WNW 23:04:53 10° NNE
Cosmos 1862 3.7 22:58:33 35° SW 22:59:54 52° WNW 23:03:49 10° N
Cosmos 1943 Rocket 3.2 22:58:08 10° NW 23:02:54 28° WSW 23:04:40 24° SW
Cosmos 494 Rocket 4.1 23:00:18 28° SW 23:03:03 66° WNW 23:08:12 10° NNE
Lacrosse 5 rocket 1.1 23:00:43 10° WNW 23:04:36 60° SW 23:06:18 29° SSE
SL-16 R/B 3.9 23:01:27 10° WSW 23:06:10 26° NW 23:10:55 10° N
DELTA 2 DEB (DPAF) 4.1 23:04:45 27° SSE 23:07:12 89° W 23:11:41 10° NNW
Cosmos 2123 Rocket 4.1 23:05:41 10° NNW 23:11:48 62° W 23:15:28 25° SSW
Cosmos 1862 Rocket 3.7 23:08:48 10° N 23:13:15 72° E 23:16:05 22° SSE
Cosmos 1633 Rocket 3.0 23:11:22 31° S 23:13:27 83° E 23:17:52 10° N
BREEZE-M DEB (TANK) 3.5 23:08:00 10° WSW 23:15:38 52° S 23:18:52 10° E
Meteor 1-4 Rocket 3.5 23:13:07 10° N 23:16:46 45° ENE 23:19:28 16° SE
Sich 1 3.4 23:15:28 29° SW 23:17:20 51° WNW 23:21:35 10° N
SL-24 DEB 4.2 23:15:55 10° N 23:20:38 88° E 23:23:21 26° S
Meteor 1-29 4.3 23:25:00 10° N 23:27:54 27° WNW 23:29:10 21° WSW
Okean 1 4.4 23:25:12 10° N 23:29:00 42° ENE 23:32:39 11° SSE
Iridium 4 Rocket 3.8 23:28:48 23° SSW 23:32:37 74° W 23:38:18 10° N
SL-4 R/B 1.1 23:32:31 44° SSW 23:33:15 71° ESE 23:36:07 10° NE
CZ-4B R/B 4.1 23:28:29 10° NNE 23:33:32 51° E 23:37:13 17° S
Okean 1-7 4.2 23:31:27 10° N 23:35:37 40° ENE 23:39:47 10° SE
Cosmos 292 Rocket 3.8 23:31:11 10° NNW 23:35:56 61° WSW 23:39:09 20° S
Cosmos 389 Rocket 3.3 23:32:54 10° NNW 23:36:08 34° W 23:37:05 29° SW
SL-16 R/B 2.5 23:31:34 17° S 23:36:29 70° WSW 23:42:46 10° NNW
COSMOS 2455 4.3 23:33:05 10° WNW 23:36:55 18° WSW 23:38:24 16° WSW
CZ-4C R/B 3.3 23:30:28 10° NW 23:37:23 46° WSW 23:45:11 10° S
Cosmos 1605 Rocket 4.1 23:34:31 22° SSW 23:38:48 68° WNW 23:45:06 10° N
Cosmos 1992 Rocket 4.1 23:34:53 10° NNW 23:40:09 77° ENE 23:45:24 10° SSE
Resurs 1-4 Rocket 2.1 23:39:41 10° NNE 23:45:03 82° WNW 23:48:45 21° SSW
Cosmos 1933 Rocket 3.6 23:43:16 20° S 23:46:09 72° E 23:50:29 10° NNE
Cosmos 1666 Rocket 4.4 23:44:14 22° SW 23:46:36 39° WNW 23:50:44 10° N
Cosmos 2369 Rocket 3.7 23:43:24 10° WNW 23:47:06 18° W 23:48:49 16° WSW
BREEZE-M TANK 3.6 23:47:12 20° S 23:47:47 21° SSE 23:50:19 10° E
SeaSat 1 2.6 23:42:59 10° NNE 23:47:54 67° WNW 23:51:20 20° SW
Cosmos 1607 3.9 23:45:31 20° SW 23:50:00 89° NW 23:56:22 10° NE
ISS -3.8 23:51:01 22° WSW 23:53:01 87° SSE 23:56:24 10° ENE
Cosmos 1703 Rocket 3.8 23:50:17 10° N 23:54:47 71° ENE 23:59:14 10° SSE
